Location: Rowland
(34.5359°N, 79.2929°W)
Time: 20:51:15
(UTC+00:00)

Tiros 1 - All Passes

Search period start: 30 September 2022 00:00
Search period end: 10 October 2022 00:00
Orbit: 629 x 663 km, 48.4° (Epoch: 30 September)

Date Brightness Start Highest point End Pass type
(mag) Time Alt. Az. Time Alt. Az. Time Alt. Az.
30 Sep - 03:25:12 10° SSE 03:27:59 15° SE 03:30:46 10° E night (unlit)
30 Sep - 05:04:52 10° SW 05:09:41 84° NW 05:14:29 10° NE night (unlit)
30 Sep - 06:48:34 10° WNW 06:52:23 23° NNW 06:56:11 10° NNE visible
30 Sep - 08:33:13 10° NW 08:35:56 15° N 08:38:38 10° NE visible
30 Sep - 10:15:34 10° NNW 10:19:27 24° NNE 10:23:16 10° ENE visible
30 Sep - 11:57:20 10° NW 12:02:04 85° SW 12:06:43 10° SE daylight
30 Sep - 13:41:46 10° WSW 13:43:38 12° SW 13:45:30 10° SSW daylight
01 Oct - 03:48:52 10° SSW 03:53:17 38° SE 03:57:42 10° ENE night (unlit)
01 Oct - 05:30:55 10° W 05:35:26 41° NNW 05:39:58 10° NE night (unlit)
01 Oct - 07:15:31 10° NW 07:18:37 17° N 07:21:42 10° NNE visible
01 Oct - 08:59:12 10° NNW 09:02:17 17° N 09:05:21 10° NE visible
01 Oct - 10:40:57 10° NW 10:45:27 41° NNE 10:49:53 10° ESE visible
01 Oct - 12:23:17 10° WNW 12:27:32 35° SW 12:31:45 10° SSE daylight
02 Oct - 02:34:47 10° SSE 02:37:09 14° SE 02:39:32 10° E night (unlit)
02 Oct - 04:13:59 10° SW 04:18:47 89° SE 04:23:36 10° NE night (unlit)
02 Oct - 05:57:31 10° WNW 06:01:26 24° NNW 06:05:21 10° NNE night (unlit)
02 Oct - 07:42:14 10° NW 07:44:58 15° N 07:47:41 10° NE visible
02 Oct - 09:24:42 10° NNW 09:28:31 23° NNE 09:32:17 10° ENE visible
02 Oct - 11:06:27 10° NW 11:11:12 87° NE 11:15:52 10° SE daylight
02 Oct - 12:50:25 10° W 12:52:49 14° SW 12:55:13 10° SSW daylight
03 Oct - 02:58:07 10° SSW 03:02:25 34° SE 03:06:44 10° ENE night (unlit)
03 Oct - 04:39:56 10° WSW 04:44:31 44° NNW 04:49:07 10° NE night (unlit)
03 Oct - 06:24:28 10° NW 06:27:39 17° NNW 06:30:50 10° NNE night (unlit)
03 Oct - 08:08:17 10° NNW 08:11:19 16° N 08:14:20 10° NE visible
03 Oct - 09:50:05 10° NW 09:54:32 38° NNE 09:58:56 10° E visible
03 Oct - 11:32:19 10° WNW 11:36:43 39° SW 11:41:02 10° SSE daylight
04 Oct - 01:44:30 10° SSE 01:46:20 12° SE 01:48:09 10° ESE night (unlit)
04 Oct - 03:23:06 10° SW 03:27:54 81° SE 03:32:42 10° NE night (unlit)
04 Oct - 05:06:30 10° W 05:10:30 25° NNW 05:14:30 10° NE night (unlit)
04 Oct - 06:51:13 10° NW 06:53:59 15° N 06:56:45 10° NNE night (unlit)
04 Oct - 08:33:50 10° NNW 08:37:34 22° NNE 08:41:16 10° ENE visible
04 Oct - 10:15:34 10° NW 10:20:19 79° NE 10:25:00 10° SE visible
04 Oct - 11:59:10 10° W 12:02:00 16° SW 12:04:48 10° SSW daylight
05 Oct - 02:07:23 10° SSW 02:11:34 30° SE 02:15:45 10° ENE night (unlit)
05 Oct - 03:48:58 10° WSW 03:53:36 48° NNW 03:58:16 10° NE night (unlit)
05 Oct - 05:33:24 10° NW 05:36:41 18° NNW 05:39:57 10° NNE night (unlit)
05 Oct - 07:17:22 10° NNW 07:20:21 16° N 07:23:19 10° NE visible
05 Oct - 08:59:13 10° NW 09:03:37 36° NNE 09:07:58 10° E visible
05 Oct - 10:41:21 10° WNW 10:45:51 44° SW 10:50:17 10° SSE visible
06 Oct - 00:54:35 10° SE 00:55:29 10° SE 00:56:23 10° ESE night (unlit)
06 Oct - 02:32:14 10° SW 02:37:00 73° SE 02:41:48 10° NE night (unlit)
06 Oct - 04:15:27 10° W 04:19:33 27° NNW 04:23:38 10° NE night (unlit)
06 Oct - 06:00:12 10° NW 06:03:00 15° N 06:05:47 10° NNE night (unlit)
06 Oct - 07:42:57 10° NNW 07:46:37 21° NNE 07:50:14 10° ENE visible
06 Oct - 09:24:40 10° NW 09:29:25 72° NE 09:34:07 10° ESE visible
06 Oct - 11:07:59 10° W 11:11:10 18° SW 11:14:18 10° S daylight
07 Oct - 01:16:41 10° S 01:20:42 27° SE 01:24:45 10° ENE visible
07 Oct - 02:58:00 10° WSW 03:02:41 52° NNW 03:07:22 10° NE night (unlit)
07 Oct - 04:42:20 10° WNW 04:45:42 19° NNW 04:49:04 10° NNE night (unlit)
07 Oct - 06:26:26 10° NNW 06:29:22 16° N 06:32:18 10° NE night (unlit)
07 Oct - 08:08:20 10° NW 08:12:41 33° NNE 08:16:58 10° E visible
07 Oct - 09:50:24 10° WNW 09:54:59 49° SW 09:59:30 10° SSE visible
08 Oct - 01:41:23 10° SW 01:46:07 66° SE 01:50:53 10° ENE visible
08 Oct - 03:24:25 10° W 03:28:35 29° NNW 03:32:47 10° NE night (unlit)
08 Oct - 05:09:10 10° NW 05:12:01 15° N 05:14:51 10° NNE night (unlit)
08 Oct - 06:52:04 10° NNW 06:55:39 20° NNE 06:59:12 10° ENE night (unlit)
08 Oct - 08:33:46 10° NW 08:38:31 65° NE 08:43:12 10° ESE visible
08 Oct - 10:16:52 10° W 10:20:19 20° SW 10:23:45 10° S visible
09 Oct - 00:26:00 10° S 00:29:51 24° SE 00:33:42 10° ENE visible
09 Oct - 02:07:02 10° WSW 02:11:45 57° NW 02:16:30 10° NE visible
09 Oct - 03:51:16 10° WNW 03:54:43 19° NNW 03:58:11 10° NNE night (unlit)
09 Oct - 05:35:29 10° NNW 05:38:22 16° N 05:41:16 10° NE night (unlit)
09 Oct - 07:17:27 10° NW 07:21:44 31° NNE 07:25:58 10° E night (unlit)
09 Oct - 08:59:27 10° WNW 09:04:07 55° SW 09:08:42 10° SE visible
